Terminal Aerodrome Forecast
Issued by NWS South Bend, IN

Home | Current Version | Previous Version | Text Only | Print | Product List | Glossary Off
Versions: 1 2 3 4 5 6 7 8 9 10 11 12 13

000
FTUS43 KIWX 261700 RRA
TAFSBN
TAF
KSBN 261743Z 2618/2718 35012G18KT P6SM FEW060
     FM262300 34007KT P6SM FEW050
     FM271500 33012KT P6SM SCT050=

USA.gov is the U.S. government's official web portal to all federal, state and local government web resources and services.